Tracking 28790 objects as of 19-Apr-2024
HD Live streaming from Space Station
objects crossing your sky now

COSMOS 620

Track COSMOS 620 now!
10-day predictions
COSMOS 620 is classified as:


NORAD ID: 6988
Int'l Code: 1973-104D
Perigee: 1,466.0 km
Apogee: 1,500.0 km
Inclination: 74.0 °
Period: 115.5 minutes
Semi major axis: 7853 km
RCS: 0.6997 m2 (medium)
Launch date: December 19, 1973
Source: Commonwealth of Independent States (former USSR) (CIS)
Launch site: PLESETSK MISSILE AND SPACE COMPLEX (PKMTR)
Your satellite tracking list
Your tracking list is empty




NASA's NSSDC Master Catalog

Two Line Element Set (TLE):
1  6988U 73104D   24110.23765028 -.00000000  00000-0  10631-3 0  9992
2  6988  74.0301  60.1610 0021639  29.0835  77.3861 12.47292539292032
Source of the keplerian elements: AFSPC